K5UBE Weather Reports


Display with metric or nautical units.
time (UTC)temp
F
wind
direction
speed
MPH
gust
MPH
rain 1hr
in
rain 24hr
in
rain mn
in
humidity
%
barometer
mb
20260507105346 38 24 1.0 2.0 0.00 0.00 0.00 85 1023.7
20260507104842 38 344 2.0 4.0 0.00 0.00 0.00 85 1023.7
20260507104339 39 326 0.0 2.0 0.00 0.00 0.00 84 1023.6
20260507103835 39 348 0.0 2.0 0.00 0.00 0.00 84 1023.7
20260507103332 39 337 1.0 2.0 0.00 0.00 0.00 83 1023.9
20260507102828 39 322 2.0 2.0 0.00 0.00 0.00 83 1023.6
20260507102326 39 14 2.0 3.0 0.00 0.00 0.00 83 1023.7
20260507101822 40 8 3.0 3.0 0.00 0.00 0.00 82 1023.9
20260507101321 40 334 2.0 3.0 0.00 0.00 0.00 82 1024.0
20260507100819 40 340 0.0 2.0 0.00 0.00 0.00 82 1023.7
20260507100317 40 340 2.0 3.0 0.00 0.00 0.00 81 1023.9
20260507095815 40 357 1.0 3.0 0.00 0.00 0.00 80 1023.6
20260507095311 40 354 1.0 4.0 0.00 0.00 0.00 79 1023.9
20260507094808 40 355 0.0 1.0 0.00 0.00 0.00 78 1023.9
20260507094305 41 339 3.0 3.0 0.00 0.00 0.00 77 1023.9
20260507093802 41 353 0.0 1.0 0.00 0.00 0.00 76 1023.9
20260507093300 41 6 2.0 3.0 0.00 0.00 0.00 76 1023.6
20260507092758 41 343 1.0 2.0 0.00 0.00 0.00 76 1023.7
20260507092254 41 331 1.0 2.0 0.00 0.00 0.00 76 1024.0
20260507091750 41 7 2.0 2.0 0.00 0.00 0.00 76 1023.7
20260507091247 41 355 2.0 3.0 0.00 0.00 0.00 76 1023.7
20260507090747 42 356 1.0 3.0 0.00 0.00 0.00 76 1023.6
20260507090244 42 21 1.0 3.0 0.00 0.00 0.00 75 1023.4
20260507085741 42 51 1.0 3.0 0.00 0.00 0.00 75 1023.4
20260507085238 42 18 1.0 4.0 0.00 0.00 0.00 74 1023.4
20260507084735 42 30 1.0 4.0 0.00 0.00 0.00 74 1023.4
20260507084232 42 30 1.0 2.0 0.00 0.00 0.00 74 1023.4
20260507083730 42 7 1.0 2.0 0.00 0.00 0.00 75 1023.6
20260507083226 42 54 3.0 6.0 0.00 0.00 0.00 75 1023.3
20260507082722 42 60 2.0 4.0 0.00 0.00 0.00 74 1023.3
20260507082218 42 81 5.0 8.0 0.00 0.00 0.00 74 1023.2
20260507081715 43 94 2.0 7.0 0.00 0.00 0.00 74 1022.8
20260507081211 43 77 4.0 7.0 0.00 0.00 0.00 74 1022.7
20260507080708 43 88 5.0 9.0 0.00 0.00 0.00 74 1022.7
20260507080204 43 94 9.0 10.0 0.00 0.00 0.00 74 1022.8
20260507075659 43 97 6.0 11.0 0.00 0.00 0.00 75 1022.7
20260507075156 43 80 7.0 9.0 0.00 0.00 0.00 74 1022.7
20260507074652 43 79 10.0 13.0 0.00 0.00 0.00 74 1023.0
20260507074150 43 67 8.0 9.0 0.00 0.00 0.00 73 1023.5
20260507073647 43 80 5.0 8.0 0.00 0.00 0.00 74 1023.5
20260507073143 44 95 5.0 10.0 0.00 0.00 0.00 73 1024.2
20260507072641 44 47 6.0 9.0 0.00 0.00 0.00 73 1024.2
20260507072138 44 66 8.0 11.0 0.00 0.00 0.00 72 1024.2
20260507071636 44 50 4.0 11.0 0.00 0.00 0.00 72 1024.5
20260507071132 44 39 7.0 10.0 0.00 0.00 0.00 71 1024.3
20260507070629 44 27 7.0 13.0 0.00 0.00 0.00 71 1024.3
20260507070126 45 71 4.0 13.0 0.00 0.00 0.00 71 1024.3
20260507065622 45 60 7.0 14.0 0.00 0.00 0.00 71 1024.2
20260507065119 45 10 4.0 11.0 0.00 0.00 0.00 70 1024.2
20260507064616 45 57 5.0 8.0 0.00 0.00 0.00 70 1024.2
20260507064115 45 37 11.0 16.0 0.00 0.00 0.00 70 1024.3
20260507063612 45 65 7.0 18.0 0.00 0.00 0.00 69 1024.1
20260507063109 45 20 6.0 15.0 0.00 0.00 0.00 69 1024.5
20260507062606 45 57 8.0 10.0 0.00 0.00 0.00 68 1024.4
20260507062103 45 9 3.0 14.0 0.00 0.00 0.00 68 1024.3
20260507061601 45 60 4.0 8.0 0.00 0.00 0.00 69 1024.5
20260507061059 46 336 5.0 9.0 0.00 0.00 0.00 68 1024.3
20260507060557 46 321 3.0 13.0 0.00 0.00 0.00 68 1024.1
20260507060054 46 49 8.0 13.0 0.00 0.00 0.00 69 1024.1
20260507055554 46 46 4.0 14.0 0.00 0.00 0.00 69 1024.0
20260507055051 46 64 11.0 17.0 0.00 0.00 0.00 70 1023.7
20260507054546 46 37 10.0 15.0 0.00 0.00 0.00 70 1023.6
20260507054044 46 46 7.0 17.0 0.00 0.00 0.00 70 1023.4
20260507053542 46 34 11.0 22.0 0.00 0.00 0.00 69 1023.5
20260507053040 46 50 14.0 18.0 0.00 0.00 0.00 69 1023.5
20260507052537 46 54 6.0 14.0 0.00 0.00 0.00 67 1023.5
20260507052034 47 30 4.0 11.0 0.00 0.00 0.00 66 1023.7
20260507051532 47 25 9.0 13.0 0.00 0.00 0.00 65 1023.9
20260507051028 47 351 5.0 10.0 0.00 0.00 0.00 65 1024.0
20260507050525 47 32 4.0 13.0 0.00 0.00 0.00 65 1023.6
20260507050021 47 31 6.0 14.0 0.00 0.00 0.00 65 1023.6
20260507045518 47 43 9.0 15.0 0.00 0.00 0.00 66 1023.4
20260507045016 47 68 8.0 19.0 0.00 0.00 0.00 66 1023.4
20260507044512 47 57 5.0 17.0 0.00 0.00 0.00 66 1023.4
20260507044009 47 22 3.0 14.0 0.00 0.00 0.00 65 1023.1
20260507043505 48 43 15.0 21.0 0.00 0.00 0.00 64 1022.7
20260507043001 48 48 13.0 21.0 0.00 0.00 0.00 64 1022.8
20260507042458 48 50 20.0 24.0 0.00 0.00 0.00 64 1022.5
20260507041954 48 20 10.0 23.0 0.00 0.00 0.00 64 1022.2
20260507041451 48 53 14.0 24.0 0.00 0.00 0.00 64 1022.5
20260507040948 49 47 12.0 21.0 0.00 0.00 0.00 64 1022.3
20260507040443 50 60 8.0 23.0 0.00 0.00 0.00 64 1022.0
20260507035939 50 58 9.0 24.0 0.00 0.00 0.00 63 1021.8
20260507035436 50 10 14.0 21.0 0.00 0.00 0.00 61 1021.7
20260507034933 51 68 7.0 17.0 0.00 0.00 0.00 60 1021.7
20260507034430 51 61 12.0 22.0 0.00 0.00 0.00 60 1021.6
20260507033928 51 76 15.0 21.0 0.00 0.00 0.00 59 1021.5
20260507033425 51 70 15.0 22.0 0.00 0.00 0.00 58 1021.6
20260507032922 52 46 18.0 26.0 0.00 0.00 0.00 58 1021.4
20260507032419 52 30 12.0 23.0 0.00 0.00 0.00 56 1021.3
20260507031915 53 39 9.0 24.0 0.00 0.00 0.00 54 1021.1
20260507031412 55 22 17.0 22.0 0.00 0.00 0.00 51 1021.0
20260507030909 56 38 15.0 19.0 0.00 0.00 0.00 49 1020.9
20260507030406 56 63 15.0 24.0 0.00 0.00 0.00 49 1020.9
20260507025903 56 68 13.0 26.0 0.00 0.00 0.00 49 1021.0
20260507025401 57 30 14.0 23.0 0.00 0.00 0.00 47 1020.7
20260507024858 57 63 23.0 33.0 0.00 0.00 0.00 47 1020.6
20260507024355 57 49 10.0 23.0 0.00 0.00 0.00 47 1020.4
20260507023851 58 32 17.0 26.0 0.00 0.00 0.00 47 1020.2
20260507023348 58 46 14.0 30.0 0.00 0.00 0.00 46 1020.1
20260507022845 59 63 20.0 29.0 0.00 0.00 0.00 44 1019.3
20260507022342 61 64 10.0 22.0 0.00 0.00 0.00 42 1019.0
20260507021837 61 56 16.0 22.0 0.00 0.00 0.00 42 1018.7
20260507021333 62 65 13.0 27.0 0.00 0.00 0.00 41 1018.1
20260507020831 65 39 11.0 15.0 0.00 0.00 0.00 35 1017.2
20260507020327 66 96 11.0 14.0 0.00 0.00 0.00 35 1017.0
20260507015824 66 91 9.0 15.0 0.00 0.00 0.00 34 1016.3
20260507015323 67 100 8.0 13.0 0.00 0.00 0.00 33 1016.2
20260507014819 67 114 6.0 9.0 0.00 0.00 0.00 33 1015.9
20260507014316 71 236 1.0 3.0 0.00 0.00 0.00 25 1015.6
20260507013812 71 205 1.0 4.0 0.00 0.00 0.00 19 1015.7
20260507013309 71 205 2.0 3.0 0.00 0.00 0.00 19 1015.5
20260507012807 71 252 0.0 3.0 0.00 0.00 0.00 19 1015.4
20260507012306 71 278 2.0 7.0 0.00 0.00 0.00 19 1015.3
20260507011800 72 281 1.0 4.0 0.00 0.00 0.00 19 1015.0
20260507011256 72 259 2.0 6.0 0.00 0.00 0.00 19 1015.3
20260507010756 72 226 1.0 7.0 0.00 0.00 0.00 18 1014.9
20260507010252 72 251 2.0 4.0 0.00 0.00 0.00 18 1014.7
20260507005750 72 198 2.0 7.0 0.00 0.00 0.00 19 1014.7
20260507005246 72 175 4.0 7.0 0.00 0.00 0.00 19 1014.6
20260507004742 72 208 2.0 4.0 0.00 0.00 0.00 18 1014.5
20260507004240 73 234 2.0 6.0 0.00 0.00 0.00 18 1014.7
20260507003736 73 212 3.0 7.0 0.00 0.00 0.00 18 1014.5
20260507003232 73 161 3.0 8.0 0.00 0.00 0.00 17 1014.5
20260507002728 75 182 7.0 9.0 0.00 0.00 0.00 16 1014.4
20260507002224 74 251 2.0 8.0 0.00 0.00 0.00 17 1014.5
20260507001721 73 206 2.0 7.0 0.00 0.00 0.00 19 1014.4
20260507001218 74 206 4.0 9.0 0.00 0.00 0.00 18 1014.2
20260507000714 75 252 2.0 10.0 0.00 0.00 0.00 17 1014.1
20260507000212 76 244 4.0 13.0 0.00 0.00 0.00 16 1014.0
20260506235708 73 171 2.0 7.0 0.00 0.00 0.00 18 1014.4
20260506235203 73 211 2.0 7.0 0.00 0.00 0.00 19 1014.1
20260506234700 73 249 6.0 9.0 0.00 0.00 0.00 18 1014.1
20260506234157 75 227 4.0 11.0 0.00 0.00 0.00 16 1013.9
20260506233654 76 225 2.0 7.0 0.00 0.00 0.00 16 1014.0
20260506233151 76 247 5.0 7.0 0.00 0.00 0.00 15 1014.2
20260506232647 75 253 2.0 8.0 0.00 0.00 0.00 16 1014.2
20260506232143 75 251 10.0 16.0 0.00 0.00 0.00 14 1014.1
20260506231640 76 285 10.0 17.0 0.00 0.00 0.00 13 1013.9
20260506231139 77 315 10.0 17.0 0.00 0.00 0.00 13 1014.1
20260506230635 76 186 5.0 6.0 0.00 0.00 0.00 13 1013.9
20260506230132 78 250 5.0 13.0 0.00 0.00 0.00 13 1013.8
20260506225628 78 255 4.0 9.0 0.00 0.00 0.00 13 1014.0
20260506225125 76 279 4.0 8.0 0.00 0.00 0.00 14 1014.0
20260506224622 75 286 5.0 11.0 0.00 0.00 0.00 14 1014.0
20260506224118 77 226 6.0 10.0 0.00 0.00 0.00 14 1014.1
20260506223614 78 243 4.0 14.0 0.00 0.00 0.00 13 1014.0
20260506223110 78 264 4.0 9.0 0.00 0.00 0.00 13 1014.0
20260506222608 78 105 2.0 6.0 0.00 0.00 0.00 13 1014.0
20260506222104 77 158 3.0 8.0 0.00 0.00 0.00 14 1014.1
20260506221602 75 257 3.0 8.0 0.00 0.00 0.00 14 1014.1
20260506221100 76 288 0.0 7.0 0.00 0.00 0.00 15 1014.2
20260506220555 78 254 6.0 10.0 0.00 0.00 0.00 13 1014.2
20260506220051 76 319 0.0 4.0 0.00 0.00 0.00 16 1014.2
20260506215548 76 271 2.0 13.0 0.00 0.00 0.00 18 1014.1
20260506215044 75 212 4.0 10.0 0.00 0.00 0.00 17 1014.1
20260506214541 74 112 4.0 9.0 0.00 0.00 0.00 19 1014.6
20260506214038 73 186 3.0 10.0 0.00 0.00 0.00 20 1014.8
20260506213536 74 216 4.0 9.0 0.00 0.00 0.00 20 1014.8
20260506213033 74 224 3.0 8.0 0.00 0.00 0.00 19 1014.8
20260506212530 73 271 4.0 11.0 0.00 0.00 0.00 20 1015.0
20260506212024 73 272 6.0 8.0 0.00 0.00 0.00 20 1014.9
20260506211521 76 222 6.0 11.0 0.00 0.00 0.00 20 1015.0
20260506211018 74 247 3.0 10.0 0.00 0.00 0.00 20 1015.0
20260506210515 74 227 2.0 9.0 0.00 0.00 0.00 20 1015.2
20260506210011 74 249 2.0 8.0 0.00 0.00 0.00 20 1015.3
20260506205508 74 258 2.0 13.0 0.00 0.00 0.00 20 1015.3
20260506205003 76 230 6.0 10.0 0.00 0.00 0.00 19 1015.4
20260506204501 76 228 4.0 9.0 0.00 0.00 0.00 20 1015.4
20260506203958 74 217 5.0 7.0 0.00 0.00 0.00 20 1015.3
20260506203456 74 134 2.0 7.0 0.00 0.00 0.00 21 1015.0
20260506202952 73 238 4.0 11.0 0.00 0.00 0.00 21 1015.5
20260506202450 72 315 6.0 10.0 0.00 0.00 0.00 21 1015.4
20260506201946 73 220 6.0 11.0 0.00 0.00 0.00 21 1015.4
20260506201444 73 297 3.0 8.0 0.00 0.00 0.00 21 1015.5
20260506200940 74 201 4.0 11.0 0.00 0.00 0.00 20 1015.7
20260506200437 75 254 3.0 13.0 0.00 0.00 0.00 19 1015.4
20260506195933 75 48 2.0 7.0 0.00 0.00 0.00 20 1015.7
20260506195430 72 281 2.0 15.0 0.00 0.00 0.00 21 1015.7
20260506194927 76 217 7.0 10.0 0.00 0.00 0.00 19 1015.6
20260506194424 72 264 2.0 9.0 0.00 0.00 0.00 20 1015.6
20260506193921 71 243 4.0 7.0 0.00 0.00 0.00 25 1015.7
20260506193418 70 259 3.0 6.0 0.00 0.00 0.00 27 1015.8
20260506192914 73 216 7.0 9.0 0.00 0.00 0.00 26 1015.9
20260506192411 72 231 4.0 10.0 0.00 0.00 0.00 26 1015.8
20260506191908 72 248 4.0 7.0 0.00 0.00 0.00 27 1016.1
20260506191405 71 306 2.0 7.0 0.00 0.00 0.00 27 1016.2
20260506190902 71 223 4.0 10.0 0.00 0.00 0.00 27 1016.4
20260506190358 71 261 7.0 8.0 0.00 0.00 0.00 26 1016.4
20260506185855 71 245 6.0 10.0 0.00 0.00 0.00 26 1016.4
20260506185352 71 249 5.0 7.0 0.00 0.00 0.00 25 1016.3
20260506184849 71 230 4.0 11.0 0.00 0.00 0.00 25 1016.5
20260506184346 68 216 5.0 7.0 0.00 0.00 0.00 28 1016.6
20260506183843 70 144 6.0 7.0 0.00 0.00 0.00 28 1016.6
20260506183338 71 225 5.0 10.0 0.00 0.00 0.00 26 1016.8
20260506182836 69 314 1.0 7.0 0.00 0.00 0.00 29 1016.8
20260506182333 69 242 3.0 7.0 0.00 0.00 0.00 30 1017.0
20260506181831 70 277 3.0 8.0 0.00 0.00 0.00 30 1017.0
20260506181328 70 282 6.0 16.0 0.00 0.00 0.00 29 1017.1
20260506180825 68 314 3.0 11.0 0.00 0.00 0.00 30 1017.3
20260506180321 67 87 1.0 6.0 0.00 0.00 0.00 32 1017.4
20260506175817 64 88 2.0 4.0 0.00 0.00 0.00 34 1017.3
20260506175315 66 146 3.0 6.0 0.00 0.00 0.00 32 1017.3
20260506174812 67 227 4.0 9.0 0.00 0.00 0.00 32 1017.5
20260506174309 68 345 3.0 10.0 0.00 0.00 0.00 33 1017.6
20260506173807 67 298 5.0 9.0 0.00 0.00 0.00 32 1017.6
20260506173303 65 166 1.0 6.0 0.00 0.00 0.00 34 1017.6
20260506172800 64 125 1.0 4.0 0.00 0.00 0.00 36 1018.1
20260506172257 63 70 2.0 4.0 0.00 0.00 0.00 39 1017.9
20260506171754 63 309 6.0 7.0 0.00 0.00 0.00 40 1017.9
20260506171251 62 219 3.0 4.0 0.00 0.00 0.00 42 1018.0
20260506170749 63 329 3.0 4.0 0.00 0.00 0.00 41 1018.0
20260506170245 62 263 3.0 7.0 0.00 0.00 0.00 41 1018.2
20260506165744 61 354 0.0 2.0 0.00 0.00 0.00 44 1018.0
20260506165241 60 150 2.0 3.0 0.00 0.00 0.00 47 1018.2
20260506164738 60 112 4.0 6.0 0.00 0.00 0.00 48 1018.1
20260506164234 58 116 4.0 6.0 0.00 0.00 0.00 51 1018.0
20260506163731 57 288 2.0 6.0 0.00 0.00 0.00 52 1018.1
20260506163226 56 89 0.0 4.0 0.00 0.00 0.00 55 1018.0
20260506162722 55 130 4.0 7.0 0.00 0.00 0.00 57 1018.1
20260506162220 56 140 2.0 6.0 0.00 0.00 0.00 56 1018.1
20260506161717 55 144 4.0 9.0 0.00 0.00 0.00 59 1018.1
20260506161215 54 204 4.0 9.0 0.00 0.00 0.00 61 1018.0
20260506160712 54 101 4.0 7.0 0.00 0.00 0.00 61 1018.0
20260506160208 53 136 4.0 4.0 0.00 0.00 0.00 60 1018.0
20260506155707 53 172 4.0 8.0 0.00 0.00 0.00 63 1017.8
20260506155204 53 172 5.0 8.0 0.00 0.00 0.00 63 1017.9
20260506153306 52 133 4.0 7.0 0.00 0.00 0.00 66 1017.8
20260506152802 51 126 5.0 6.0 0.00 0.00 0.00 67 1017.9
20260506152300 50 152 3.0 4.0 0.00 0.00 0.00 68 1018.0
20260506151759 50 242 2.0 7.0 0.00 0.00 0.00 70 1018.1
20260506151255 51 200 4.0 6.0 0.00 0.00 0.00 68 1018.0
20260506150751 49 169 3.0 6.0 0.00 0.00 0.00 71 1018.1
20260506150249 48 61 2.0 4.0 0.00 0.00 0.00 73 1018.1
20260506145745 49 128 4.0 6.0 0.00 0.00 0.00 71 1018.1
20260506145242 47 99 8.0 9.0 0.00 0.00 0.00 74 1018.2
20260506144739 47 123 3.0 7.0 0.00 0.00 0.00 74 1018.2
20260506144236 47 85 5.0 7.0 0.00 0.00 0.00 75 1018.1
20260506143734 47 108 5.0 7.0 0.00 0.00 0.00 76 1018.0
20260506143231 47 137 1.0 4.0 0.00 0.00 0.00 76 1018.1
20260506142730 46 89 4.0 8.0 0.00 0.00 0.00 78 1018.0
20260506142227 45 171 3.0 8.0 0.00 0.00 0.00 79 1018.0
20260506141725 45 122 5.0 9.0 0.00 0.00 0.00 79 1018.0
20260506141223 45 131 3.0 7.0 0.00 0.00 0.00 79 1017.9
20260506140721 44 94 6.0 9.0 0.00 0.00 0.00 80 1018.1
20260506140217 44 102 3.0 8.0 0.00 0.00 0.00 82 1018.2
20260506135714 44 108 4.0 7.0 0.00 0.00 0.00 82 1018.1
20260506135210 44 101 3.0 9.0 0.00 0.00 0.00 82 1018.3
20260506134707 43 117 4.0 7.0 0.00 0.00 0.00 83 1018.1
20260506134203 43 124 3.0 7.0 0.00 0.00 0.00 83 1018.0
20260506133701 43 145 3.0 4.0 0.00 0.00 0.00 83 1018.3
20260506133157 43 92 6.0 11.0 0.00 0.00 0.00 84 1017.9
20260506132655 43 110 5.0 8.0 0.00 0.00 0.00 84 1017.9
20260506132151 42 111 4.0 8.0 0.00 0.00 0.00 85 1017.8
20260506131649 42 116 5.0 10.0 0.00 0.00 0.00 86 1017.5
20260506131145 42 88 6.0 9.0 0.00 0.00 0.00 85 1017.5
20260506130642 42 149 4.0 9.0 0.00 0.00 0.00 85 1017.4
20260506130139 42 110 4.0 10.0 0.00 0.00 0.00 86 1017.6
20260506125637 42 125 6.0 11.0 0.00 0.00 0.00 86 1017.6
20260506125135 42 88 9.0 11.0 0.00 0.00 0.00 86 1017.3
20260506124633 42 121 7.0 13.0 0.00 0.00 0.00 85 1017.4
20260506124130 42 92 6.0 9.0 0.00 0.00 0.00 85 1017.5
20260506123628 41 88 5.0 7.0 0.00 0.00 0.00 85 1017.3
20260506123126 41 95 9.0 11.0 0.00 0.00 0.00 85 1017.4
20260506122622 41 116 6.0 9.0 0.00 0.00 0.00 86 1017.3
20260506122120 41 78 7.0 9.0 0.00 0.00 0.00 86 1017.4
20260506121618 41 71 4.0 9.0 0.00 0.00 0.00 86 1017.3
20260506121114 41 94 5.0 7.0 0.00 0.00 0.00 85 1017.4
20260506120612 41 74 4.0 8.0 0.00 0.00 0.00 85 1017.4
20260506120109 41 89 6.0 8.0 0.00 0.00 0.00 85 1017.3
20260506115608 41 70 6.0 9.0 0.00 0.00 0.00 85 1017.2
20260506115105 41 109 5.0 8.0 0.00 0.00 0.00 86 1017.1
20260506114602 41 86 9.0 11.0 0.00 0.00 0.00 86 1017.1
20260506114100 41 116 8.0 9.0 0.00 0.00 0.00 86 1017.2
20260506113558 41 85 5.0 8.0 0.00 0.00 0.00 86 1016.8
20260506113055 40 69 4.0 6.0 0.00 0.00 0.00 86 1017.2
20260506112551 40 99 5.0 8.0 0.00 0.00 0.00 86 1017.1
20260506112049 40 109 5.0 7.0 0.00 0.00 0.00 86 1017.1
20260506111547 39 66 3.0 4.0 0.00 0.00 0.00 86 1017.0
20260506111044 39 64 2.0 7.0 0.00 0.00 0.00 86 1017.0
20260506110542 39 77 3.0 7.0 0.00 0.00 0.00 85 1016.8
20260506110039 40 60 5.0 9.0 0.00 0.00 0.00 85 1017.1
20260506105535 40 71 6.0 8.0 0.00 0.00 0.00 85 1017.0